Other Public Products
Issued by NWS Grand Forks, ND

Home | Current Version | Previous Version | Text Only | Print | Product List | Glossary Off
Versions: 1 2 3 4 5 6 7 8 9 10 11 12 13 14 15 16 17 18 19 20 21 22 23 24 25 26 27 28 29 30 31 32 33 34 35 36 37 38 39 40 41 42 43 44 45 46 47 48 49 50

000
FPUS83 KFGF 210610
OPUFGF
PRAIRIE TO PINES WEATHER ROUNDUP
NATIONAL WEATHER SERVICE EASTERN NORTH DAKOTA/GRAND FORKS ND
1200 AM CST SUN DEC 21 2014

 **SATELLITE DATA USED TO AUGMENT SKY COVER AT AUTOMATED STATIONS**
 *****  WEATHER ACROSS EASTERN NORTH DAKOTA  *****

CITY           SKY/WX    TMP DP  RH WIND       PRES   REMARKS
GRAND FORKS    NOT AVBL
GRAND FORKS AF LGT SNOW  31  31 100 SW15G21   29.82F FOG     WCI  20
GRAND CITY NWS   N/A     32 N/A N/A S16         N/A  WCI  21
BUXTON         NOT AVBL
DEVILS LAKE    CLOUDY    27  19  74 S7        29.75S WCI  19
6HR MIN TEMP:  27; 6HR MAX TEMP:  27;

FARGO          CLOUDY    32  29  88 S15       29.88F FOG     WCI  22
6HR MIN TEMP:  32; 6HR MAX TEMP:  33;

WAHPETON ARPT  CLOUDY    32  28  86 S16       29.91F WCI  21
$$

 *****  WEATHER ACROSS CENTRAL AND WESTERN NORTH DAKOTA  *****

CITY           SKY/WX    TMP DP  RH WIND       PRES   REMARKS
JAMESTOWN      CLEAR     24  21  88 S10       29.79F WCI  14
6HR MIN TEMP:  24; 6HR MAX TEMP:  30;

BISMARCK       CLEAR     19  18  95 CALM      29.78F
6HR MIN TEMP:  14; 6HR MAX TEMP:  25;

MINOT          PTCLDY    27  23  85 SW8       29.70S WCI  19
6HR MIN TEMP:  24; 6HR MAX TEMP:  34; 6HR PCP:  0.01;

MINOT AFB      PTCLDY    26  26 100 SW6       29.70S WCI  20
6HR MIN TEMP:  19; 6HR MAX TEMP:  32; 6HR PCP: TRACE;

GARRISON         N/A     24  22  91 CALM      29.73S
6HR MIN TEMP:  24; 6HR MAX TEMP:  30;

WILLISTON      NOT AVBL
DICKINSON      PTCLDY    28  20  71 CALM      29.71F
6HR MIN TEMP:  26; 6HR MAX TEMP:  34;

HETTINGER      PTCLDY    25  21  85 CALM      29.76F
6HR MIN TEMP:  23; 6HR MAX TEMP:  33;

$$

 *****  OTHER OBSERVATIONS NORTHEAST NORTH DAKOTA  *****

CITY           SKY/WX    TMP DP  RH WIND       PRES   REMARKS
WALHALLA         N/A     28  28 100 S7        29.79F FOG     WCI  21
LANGDON        FOG       27  27 100 N5        29.74F VSB 1/2 WCI  21
CAVALIER       CLOUDY    28  28 100 S10G16    29.80F FOG     WCI  19
GRAFTON        NOT AVBL
CANDO          FOG       27  25  93 SE7       29.75F VSB 3/4 WCI  19
FORT TOTTEN      N/A     26  25  97 S3        29.95
ROLLA          FOG       25  25 100 MISG      29.71F VSB 3/4
RUGBY          MOCLDY    25  25 100 SE5       29.72F WCI  19
 ***** THE ABOVE OBSERVATIONS ARE NON NWS ARE NOT QUALITY
        CONTROLLED AND MAY MIS-REPORT RAIN FOR SNOW...
$$

 *****  OTHER OBSERVATIONS SOUTHEAST NORTH DAKOTA *****

CITY           SKY/WX    TMP DP  RH WIND       PRES   REMARKS
COOPERSTOWN    NOT AVBL
VALLEY CITY    CLOUDY    27  27 100 S14G21    29.81F FOG     WCI  15
OAKES            N/A     28  28 100 S16       29.85S FOG     WCI  17
GWINNER        CLOUDY    32  32 100 MISG      29.87F
SHEYENNE NWR     N/A     31  28  90 S12       29.95S WCI  22
BUFFALO        NOT AVBL
WYNDMERE         N/A     30  30 100 S8          N/A  WCI  23
 ***** THE ABOVE OBSERVATIONS ARE NON NWS ARE NOT QUALITY
       CONTROLLED AND MAY MIS-REPORT RAIN FOR SNOW...
$$

  *****  WEATHER ACROSS NORTHERN MINNESOTA  *****

CITY           SKY/WX    TMP DP  RH WIND       PRES   REMARKS
FLAG ISLAND    DRIZZLE   28  28 100 S16       29.88F WCI  17
WARROAD        CLOUDY    30  27  86 S9        29.88F FOG     WCI  22
ROSEAU         LGT SNOW  30  27  86 S8        29.87F WCI  23
HALLOCK        CLOUDY    30  30 100 CALM      29.83F FOG
THF RVR FALLS  CLOUDY    30  28  93 S16       29.86F WCI  19
6HR MIN TEMP:  28; 6HR MAX TEMP:  30;

HALSTAD          N/A     31  28  89 S20         N/A  WCI  19
FOSSTON        CLOUDY    28  27  93 S16       29.88F FOG     WCI  17
BAUDETTE       CLOUDY    29  27  92 S9        29.90F WCI  20
6HR MIN TEMP:  29; 6HR MAX TEMP:  30;

WASKISH        LGT SNOW  28  28 100 CALM      29.92F
CROOKSTON      NOT AVBL
$$
  *****  WEATHER ACROSS CENTRAL AND WEST MINNESOTA  *****

CITY           SKY/WX    TMP DP  RH WIND       PRES   REMARKS
BEMIDJI        LGT SNOW  28  27  94 SE14      29.90F WCI  17
PARK RAPIDS    CLOUDY    29  27  92 S17       29.93F WCI  17
6HR MIN TEMP:  29; 6HR MAX TEMP:  30;

WADENA         NOT AVBL
DETROIT LAKES  CLOUDY    30  30 100 S17G24    29.90F WCI  18
MOORHEAD       CLOUDY    32  32 100 S16G23    29.90F FOG     WCI  21
FERGUS FALLS   CLOUDY    28  28 100 S18       29.96R FOG     WCI  16
ELBOW LAKE     CLOUDY    29  28  98 S21       29.92F FOG     WCI  16
6HR MIN TEMP:  29; 6HR MAX TEMP:  30;

MORRIS MN      CLOUDY    30  28  93 S16       29.94F FOG     WCI  19
STAPLES        CLOUDY    27  27 100 SE13      29.96F FOG     WCI  16
WHEATON        CLOUDY    28  27  93 S8        29.95S FOG     WCI  20
$$
  *****  WEATHER ELSEWHERE ACROSS MINNESOTA  *****

CITY           SKY/WX    TMP DP  RH WIND       PRES   REMARKS
DULUTH         CLOUDY    30  25  81 S13G20    30.01F WCI  20
6HR MIN TEMP:  30; 6HR MAX TEMP:  30;

INTRNTL FALLS  CLOUDY    28  26  92 S6        29.94F WCI  22
6HR MIN TEMP:  28; 6HR MAX TEMP:  30;

ELY            CLOUDY    28  27  93 S8        30.00S FOG     WCI  20
CLOQUET        CLOUDY    30  27  86 S9G16     30.02S WCI  22
BRAINERD       CLOUDY    27  25  92 S15G22    29.99F WCI  15
6HR MIN TEMP:  27; 6HR MAX TEMP:  29;

HIBBING        CLOUDY    29  25  85 S7G16     29.98F WCI  22
6HR MIN TEMP:  29; 6HR MAX TEMP:  30;

ALEXANDRIA     CLOUDY    29  28  96 S15       29.95F FOG     WCI  18
6HR MIN TEMP:  29; 6HR MAX TEMP:  30;

SAINT CLOUD    CLOUDY    32  27  81 S12       30.03S WCI  23
6HR MIN TEMP:  31; 6HR MAX TEMP:  32;

MINNEAPOLIS    CLOUDY    31  26  82 SE9       30.07F WCI  23
6HR MIN TEMP:  31; 6HR MAX TEMP:  32;

$$

  *****  WEATHER ACROSS SOUTH DAKOTA  *****

CITY           SKY/WX    TMP DP  RH WIND       PRES   REMARKS
SIOUX FALLS    CLOUDY    30  29  96 S15       29.95F FOG     WCI  19
6HR MIN TEMP:  30; 6HR MAX TEMP:  30;

BROOKINGS      NOT AVBL
WATERTOWN      CLOUDY    29  28  96 S10       29.89F FOG     WCI  20
6HR MIN TEMP:  29; 6HR MAX TEMP:  29;

HURON          CLOUDY    30  29  96 S12       29.90F WCI  20
6HR MIN TEMP:  30; 6HR MAX TEMP:  30;

SISSETON         N/A     31  29  92 S10       29.90F WCI  22
ABERDEEN       CLOUDY    30  28  92 S14       29.88F WCI  19
6HR MIN TEMP:  29; 6HR MAX TEMP:  31;

MITCHELL       CLOUDY    32  31  96 S9        29.93F FOG     WCI  24
PIERRE         CLOUDY    25  22  88 S7        29.83F WCI  17
6HR MIN TEMP:  17; 6HR MAX TEMP:  25;

MOBRIDGE       NOT AVBL
RAPID CITY     MOCLDY    32  25  75 SE6       29.77F
6HR MIN TEMP:  28; 6HR MAX TEMP:  36;

$$

  *****  SOME WEATHER IN NEARBY STATES *****

CITY           SKY/WX    TMP DP  RH WIND       PRES   REMARKS
GLASGOW MT     NOT AVBL
GREAT FALLS MT CLOUDY    39  27  62 S14       29.53F
6HR MIN TEMP:  33; 6HR MAX TEMP:  39;

CHEYENNE WY    MOCLDY    35  18  49 W13       29.91S
6HR MIN TEMP:  30; 6HR MAX TEMP:  38;

SCOTTSBLUFF NE CLOUDY    38  29  70 NW6       29.88F
6HR MIN TEMP:  25; 6HR MAX TEMP:  43; 6HR PCP: TRACE;

OMAHA NE       FOG       35  34  96 SE7       30.03F VSB 1
6HR MIN TEMP:  34; 6HR MAX TEMP:  35;

DES MOINES IA  CLOUDY    37  35  92 S9        30.09S FOG
6HR MIN TEMP:  36; 6HR MAX TEMP:  37; 6HR PCP: TRACE;

DAVENPORT IA   CLOUDY    33  30  88 S9        30.18F FOG
6HR MIN TEMP:  32; 6HR MAX TEMP:  33;

CHICAGO IL     CLOUDY    31  26  82 S6        30.24S
6HR MIN TEMP:  31; 6HR MAX TEMP:  32;

EAU CLAIRE WI  CLOUDY    31  27  85 S9        30.11F FOG     WCI  23
6HR MIN TEMP:  30; 6HR MAX TEMP:  31;

LA CROSSE WI   CLOUDY    33  28  81 SE7       30.14F HAZE
6HR MIN TEMP:  33; 6HR MAX TEMP:  33; 6HR PCP: TRACE;

$$

  *****  SOME NATIONAL WEATHER *****

CITY           SKY/WX    TMP DP  RH WIND       PRES   REMARKS
LA GUARDIA NY  CLOUDY    32  23  69 NW7       30.28F
6HR MIN TEMP:  32; 6HR MAX TEMP:  33;

RALEIGH NC     CLOUDY    38  35  89 CALM      30.27F FOG


USA.gov is the U.S. government's official web portal to all federal, state and local government web resources and services.